This is the latest recevied weather packets stored in our database for station/object K8DJB-1. If no packets are shown the sender has not sent any weather packets the latest 10 day(s).
| Time | Temp. | Humidity | Pressure | Rain* | Wind** | Luminosity | Snow |
|---|---|---|---|---|---|---|---|
| 1777917614 | 23.33° C | 25% | 999.4 hPa | 0 mm | - | - | - |
| 1777917314 | 23.33° C | 25% | 999.3 hPa | 0 mm | - | - | - |
| 1777917014 | 23.33° C | 25% | 999.5 hPa | 0 mm | - | - | - |
| 1777916714 | 23.33° C | 27% | 999.5 hPa | 0 mm | - | - | - |
| 1777916369 | 23.33° C | 25% | 999.6 hPa | 0 mm | - | - | - |
| 1777915957 | 23.33° C | 25% | 999.7 hPa | 0 mm | - | - | - |
| 1777915657 | 23.33° C | 26% | 999.9 hPa | 0 mm | - | - | - |
| 1777915357 | 23.33° C | 27% | 999.9 hPa | 0 mm | - | - | - |
| 1777915057 | 23.33° C | 26% | 1000 hPa | 0 mm | - | - | - |
| 1777914757 | 23.33° C | 26% | 1000 hPa | 0 mm | - | - | - |
| 1777914456 | 23.33° C | 29% | 1000.1 hPa | 0 mm | - | - | - |
| 1777914157 | 23.33° C | 26% | 1000.1 hPa | 0 mm | - | - | - |
| 1777913857 | 22.78° C | 25% | 1000.1 hPa | 0 mm | - | - | - |
| 1777913557 | 22.78° C | 26% | 1000.3 hPa | 0 mm | - | - | - |
| 1777913257 | 22.78° C | 28% | 1000.3 hPa | 0 mm | - | - | - |
| 1777912957 | 22.78° C | 27% | 1000.3 hPa | 0 mm | - | - | - |
| 1777912657 | 22.78° C | 27% | 1000.4 hPa | 0 mm | - | - | - |
| 1777912356 | 22.78° C | 32% | 1000.5 hPa | 0 mm | - | - | - |
| 1777912056 | 22.78° C | 30% | 1000.6 hPa | 0 mm | - | - | - |
| 1777911757 | 22.22° C | 32% | 1000.8 hPa | 0 mm | - | - | - |
| 1777911456 | 22.22° C | 29% | 1000.7 hPa | 0 mm | - | - | - |
| 1777911157 | 22.22° C | 30% | 1000.9 hPa | 0 mm | - | - | - |
| 1777910857 | 21.67° C | 34% | 1000.9 hPa | 0 mm | - | - | - |
| 1777910556 | 21.67° C | 34% | 1001 hPa | 0 mm | - | - | - |
| 1777910257 | 21.67° C | 34% | 1001 hPa | 0 mm | - | - | - |
* Rain latest hour (hover to see other rain measurements)
** Current wind speed in m/s (hover to see current wind gust speed)